Wind_Speed
18 18 18 17 17 18 17 17 17 17 18 19 19 18 18 19 19 19 19 19 19 19 20 20 20 21 21 21 21 22 23 23 22 21 21 21 21 21
19 19 19 19 19 19 19 19 19 19 18 19 20 20 20 21 20 20 20 20 20 20 20 20 20 21 21 21 22 22 23 23 22 21 21 21 21 22
20 20 20 20 20 20 20 20 20 20 20 20 21 21 20 21 21 21 21 21 20 20 21 21 21 21 20 20 20 20 20 21 21 20 20 20 21 22
20 21 21 21 21 21 21 22 21 21 21 21 22 22 22 22 22 22 21 22 22 21 21 21 21 21 21 21 20 20 20 20 21 21 21 21 21 21
21 21 22 22 21 22 22 23 23 22 22 22 22 23 23 23 23 23 23 23 23 23 23 22 22 22 21 21 20 20 20 20 21 21 21 21 22 23
22 22 23 23 22 23 23 23 24 24 24 25 24 23 23 23 23 24 24 24 23 23 23 23 23 23 22 22 21 21 20 20 21 21 21 21 22 23
23 23 24 23 23 24 24 24 24 25 25 25 25 24 23 24 24 24 24 24 24 24 24 24 23 23 23 23 22 22 21 21 21 22 22 22 23 23
24 24 24 24 24 25 25 25 25 25 25 25 25 24 24 25 24 24 24 24 24 24 24 24 24 24 23 23 23 23 23 22 23 23 23 24 24 24
24 25 25 25 25 25 25 25 25 25 25 25 25 25 25 24 25 25 25 24 24 25 24 24 25 25 24 24 24 24 24 24 24 24 25 25 26 26
26 25 25 26 26 26 26 26 26 26 27 27 26 26 26 26 26 26 26 25 24 24 25 25 25 25 25 25 25 25 25 25 26 26 27 27 27 27
26 27 26 26 27 27 27 27 27 28 29 29 28 28 28 27 27 27 27 27 26 26 26 26 26 26 26 26 26 26 26 27 27 27 27 27 27 28
28 27 28 28 28 28 28 28 28 29 29 30 29 29 28 27 27 28 29 28 28 28 28 29 28 28 27 28 27 26 26 27 28 28 27 27 28 28
29 29 29 29 29 29 29 29 29 30 31 31 31 30 30 30 29 29 30 30 29 29 29 30 30 30 29 28 28 28 28 28 28 28 27 27 27 27
30 30 30 30 30 30 30 30 31 31 31 31 31 31 31 31 31 31 31 31 31 31 30 31 31 31 30 29 29 29 29 29 28 28 29 28 28 28
30 30 31 31 31 31 32 31 32 32 32 32 32 33 33 33 32 31 31 32 31 31 31 31 32 32 31 31 31 31 30 30 30 30 29 29 29 30
31 31 31 32 32 32 32 32 32 32 32 32 33 33 34 34 33 33 33 33 33 32 32 32 32 32 32 32 31 31 31 31 31 32 32 31 31 30
32 32 32 32 32 32 32 33 33 33 33 32 33 33 34 34 34 34 33 33 33 33 32 32 32 32 32 32 31 31 31 31 32 32 32 32 31 31
32 32 32 32 32 32 33 33 33 33 33 33 33 33 33 33 34 34 34 33 33 33 33 33 33 33 33 32 32 32 32 32 32 32 33 32 31 31
32 32 32 32 32 32 32 32 32 32 32 32 32 32 32 33 34 34 34 34 33 33 34 34 34 34 33 33 32 32 33 33 33 32 32 32 32 32
32 32 32 32 32 32 32 32 32 32 32 32 32 32 32 32 32 33 33 34 34 34 34 35 35 34 34 34 33 33 33 33 33 32 32 32 33 33
32 32 32 32 32 32 32 32 32 33 33 33 33 33 32 32 32 32 33 33 34 34 34 34 35 35 35 34 34 34 34 34 33 33 33 33 33 33
33 32 32 32 32 32 32 32 32 32 33 33 33 33 33 33 33 33 33 33 33 33 34 34 35 35 35 35 34 34 34 34 34 33 33 34 34 34
32 32 32 32 33 32 32 32 32 32 32 33 33 33 33 33 34 33 33 32 32 33 34 35 35 35 36 36 35 34 34 33 33 33 33 34 34 34
Wind_Direction
274 272 271 271 271 271 270 269 270 270 271 271 273 274 273 273 273 274 275 274 272 272 271 271 273 274 273 274 274 274 271 267 265 264 262 258 254 251
274 273 271 271 271 273 274 273 272 271 272 272 273 275 274 273 274 274 274 274 272 271 270 271 272 272 273 272 273 273 269 265 263 263 262 258 253 251
272 272 272 272 272 272 272 273 272 271 272 273 273 274 274 275 275 275 275 274 274 273 273 275 276 276 274 274 275 275 272 266 261 262 262 258 253 251
272 272 272 273 272 272 273 273 272 271 272 274 273 273 274 275 275 275 276 274 273 274 273 274 275 276 276 274 277 275 272 267 262 263 261 257 252 252
273 272 272 273 271 271 272 273 272 271 272 273 273 272 272 274 275 274 276 274 273 274 273 273 271 272 273 274 276 274 271 268 265 264 261 256 254 254
274 273 273 272 271 271 272 273 272 272 272 273 273 273 272 273 274 273 274 274 273 273 273 271 270 270 271 272 272 272 271 269 266 263 260 257 256 256
276 274 273 272 271 271 272 272 272 273 273 274 273 273 273 272 271 272 272 273 273 272 271 270 270 270 269 269 270 270 271 271 268 263 261 261 261 259
275 274 273 272 272 272 272 272 272 273 274 273 272 273 275 274 272 272 271 272 273 271 270 269 269 268 268 269 269 268 268 270 270 266 264 262 262 261
278 276 273 272 272 271 271 271 271 272 272 273 274 273 273 274 273 271 270 271 272 272 270 269 268 268 268 268 268 267 266 266 268 267 266 263 262 261
278 277 274 272 271 270 271 270 271 271 273 274 275 275 272 272 272 270 270 270 271 271 270 270 270 269 268 268 267 267 266 266 266 266 266 264 263 261
279 277 274 272 271 270 271 270 271 272 273 274 275 276 275 273 272 270 269 269 271 271 269 269 270 270 269 268 268 267 267 267 267 266 266 265 263 261
278 277 275 273 272 272 272 272 272 273 273 273 273 274 274 273 271 270 270 269 270 270 269 269 269 269 269 269 268 268 268 267 267 267 267 266 264 263
277 277 275 274 274 273 273 273 273 273 272 272 271 271 272 272 270 269 270 269 269 268 268 269 272 272 270 269 268 267 266 266 265 266 267 266 264 263
278 277 275 275 274 273 274 274 273 272 271 271 271 271 272 272 271 270 269 269 269 269 268 268 270 271 270 270 269 268 266 266 265 266 266 266 265 264
280 278 276 275 274 274 273 273 273 272 272 271 271 270 271 271 270 270 269 269 269 269 269 269 269 270 271 271 270 268 267 265 264 265 266 264 263 262
281 280 278 276 276 277 275 273 274 274 274 273 272 271 270 270 270 270 268 268 269 270 270 270 269 270 270 271 271 268 266 265 265 265 266 264 262 261
281 280 280 278 276 277 276 274 274 275 275 274 274 273 271 271 270 269 269 269 269 269 270 270 271 271 270 270 270 269 267 266 265 266 266 264 262 261
284 282 281 280 277 276 276 275 275 274 274 274 274 273 271 270 270 269 269 269 269 268 268 270 270 269 269 269 270 269 268 266 265 265 265 264 263 263
286 285 283 281 279 277 277 276 275 274 274 274 274 273 271 269 269 268 267 266 268 269 269 269 269 269 269 269 268 268 267 266 265 265 264 263 263 263
287 285 283 281 279 278 277 276 275 275 275 275 274 273 272 271 270 269 269 268 268 269 269 269 269 269 268 268 268 267 266 266 264 264 263 262 261 261
286 285 284 282 279 278 277 276 276 275 275 275 273 272 272 272 271 271 270 270 269 269 270 269 269 268 268 268 268 267 266 266 265 263 262 262 261 260
287 285 284 282 280 278 278 277 276 276 275 274 272 271 271 272 270 270 271 271 270 269 269 268 268 268 267 268 268 267 265 265 265 264 262 261 261 261
289 287 285 283 281 279 278 277 277 277 276 274 272 271 272 272 271 271 271 270 270 269 269 269 267 267 268 267 266 265 265 265 265 265 263 262 262 261
Height
5792 5792 5793 5793 5793 5793 5793 5793 5794 5793 5793 5792 5792 5791 5790 5790 5789 5789 5788 5787 5787 5786 5785 5785 5784 5783 5782 5781 5780 5779 5778 5778 5778 5778 5777 5778 5779 5781
5787 5787 5787 5787 5787 5787 5787 5788 5788 5788 5787 5787 5786 5785 5785 5784 5783 5783 5782 5781 5781 5780 5780 5779 5778 5777 5776 5774 5773 5771 5770 5769 5770 5770 5770 5771 5772 5775
5781 5781 5781 5781 5781 5781 5781 5781 5781 5781 5781 5781 5780 5779 5778 5778 5777 5777 5776 5775 5775 5774 5774 5773 5772 5771 5770 5768 5766 5764 5762 5762 5764 5765 5765 5765 5767 5769
5775 5775 5775 5775 5775 5775 5775 5775 5775 5775 5775 5774 5773 5773 5772 5771 5771 5770 5770 5769 5769 5768 5767 5767 5766 5765 5764 5763 5761 5759 5758 5758 5758 5759 5759 5760 5762 5764
5769 5769 5769 5769 5769 5769 5769 5768 5768 5768 5768 5768 5767 5766 5765 5765 5764 5763 5763 5762 5762 5761 5761 5761 5760 5759 5758 5757 5756 5755 5754 5753 5754 5754 5754 5755 5757 5758
5763 5763 5763 5763 5762 5762 5762 5762 5761 5761 5761 5760 5760 5759 5758 5758 5757 5756 5756 5755 5755 5754 5754 5754 5753 5753 5752 5752 5751 5750 5749 5748 5748 5749 5749 5750 5751 5752
5756 5756 5756 5755 5755 5755 5755 5755 5754 5754 5753 5753 5752 5752 5751 5751 5750 5749 5749 5748 5747 5747 5747 5746 5746 5746 5746 5745 5745 5744 5744 5743 5743 5743 5744 5744 5745 5746
5750 5749 5749 5748 5748 5748 5747 5747 5747 5747 5746 5746 5745 5745 5744 5743 5743 5742 5742 5741 5741 5740 5740 5740 5739 5739 5739 5739 5738 5738 5738 5737 5737 5737 5738 5738 5739 5740
5742 5742 5741 5741 5740 5740 5740 5740 5739 5739 5739 5739 5738 5737 5737 5736 5735 5735 5734 5734 5733 5733 5732 5732 5732 5732 5732 5732 5731 5732 5731 5731 5731 5731 5731 5732 5732 5732
5735 5734 5733 5733 5733 5732 5732 5732 5732 5731 5731 5730 5730 5730 5729 5728 5728 5727 5727 5726 5726 5725 5725 5725 5725 5725 5725 5725 5724 5724 5724 5724 5724 5724 5724 5724 5724 5725
5727 5726 5726 5725 5725 5724 5724 5724 5724 5723 5722 5722 5721 5721 5720 5720 5719 5719 5718 5718 5718 5718 5717 5717 5717 5718 5718 5717 5717 5716 5716 5716 5716 5716 5716 5716 5716 5716
5719 5718 5718 5717 5716 5716 5715 5715 5715 5714 5714 5713 5713 5712 5711 5711 5710 5710 5710 5710 5709 5709 5709 5709 5709 5709 5710 5709 5709 5708 5708 5707 5707 5707 5707 5707 5707 5708
5711 5710 5709 5708 5707 5706 5706 5706 5706 5705 5705 5704 5703 5703 5702 5701 5701 5701 5700 5700 5701 5700 5700 5700 5700 5700 5700 5701 5700 5700 5699 5699 5699 5699 5699 5699 5699 5699
5701 5700 5699 5698 5697 5697 5696 5696 5695 5695 5694 5694 5694 5693 5692 5692 5691 5691 5691 5691 5691 5691 5691 5691 5691 5690 5690 5690 5691 5690 5690 5689 5689 5689 5690 5690 5690 5690
5692 5690 5689 5688 5688 5687 5686 5686 5685 5684 5684 5684 5683 5683 5682 5681 5681 5681 5681 5681 5681 5681 5680 5680 5680 5680 5680 5680 5680 5680 5680 5680 5679 5680 5680 5680 5681 5681
5682 5680 5679 5678 5677 5676 5676 5675 5674 5674 5673 5673 5672 5672 5671 5671 5670 5670 5670 5670 5670 5670 5670 5670 5670 5670 5669 5669 5669 5669 5669 5670 5670 5670 5670 5670 5671 5671
5672 5670 5669 5667 5666 5666 5665 5664 5664 5663 5662 5662 5661 5660 5660 5659 5659 5659 5659 5659 5659 5660 5660 5660 5659 5659 5659 5658 5659 5659 5658 5659 5659 5659 5659 5660 5661 5661
5662 5660 5658 5657 5656 5655 5654 5653 5653 5652 5651 5651 5650 5649 5649 5649 5648 5648 5648 5648 5649 5649 5649 5649 5648 5648 5648 5648 5648 5648 5648 5648 5648 5649 5649 5650 5651 5651
5651 5650 5648 5646 5645 5644 5643 5643 5642 5641 5640 5640 5639 5638 5638 5638 5637 5637 5637 5638 5638 5638 5638 5637 5637 5637 5637 5638 5638 5637 5638 5638 5638 5638 5639 5639 5640 5641
5641 5639 5637 5636 5635 5634 5633 5632 5631 5631 5630 5629 5628 5628 5627 5627 5627 5626 5626 5626 5626 5627 5627 5626 5626 5626 5626 5627 5627 5627 5626 5627 5627 5628 5628 5628 5629 5630
5631 5629 5627 5625 5624 5623 5623 5622 5621 5620 5619 5618 5618 5617 5617 5616 5616 5616 5615 5615 5615 5615 5616 5616 5615 5615 5615 5615 5616 5616 5616 5616 5616 5616 5617 5618 5618 5619
5620 5618 5617 5615 5614 5613 5612 5611 5610 5609 5608 5608 5607 5606 5606 5605 5605 5605 5605 5604 5604 5604 5605 5605 5604 5604 5604 5604 5605 5605 5605 5605 5605 5605 5605 5606 5607 5608
5610 5608 5607 5605 5603 5602 5601 5600 5599 5598 5597 5597 5596 5595 5595 5594 5594 5594 5594 5594 5594 5594 5594 5594 5593 5593 5593 5593 5593 5594 5594 5594 5594 5594 5595 5595 5595 5596